GW6191 Weather Reports


time (UTC)temp
F
wind
direction
speed
knots
gust
knots
rain 1hr
in
rain 24hr
in
rain mn
in
humidity
%
barometer
mb
20260906225021 98 136 2.6 7.0 0.00 0.00 0.00 39 1011.4
20260906224533 98 194 2.6 10.4 0.00 0.00 0.00 39 1011.3
20260906224014 98 115 3.5 10.4 0.00 0.00 0.00 39 1011.4
20260906223514 98 116 4.3 10.4 0.00 0.00 0.00 39 1011.4
20260906223021 98 97 1.7 7.8 0.00 0.00 0.00 39 1011.5
20260906222511 98 134 3.5 8.7 0.00 0.00 0.00 39 1011.6
20260906222014 98 236 1.7 9.6 0.00 0.00 0.00 39 1011.7
20260906221533 98 200 5.2 9.6 0.00 0.00 0.00 38 1011.7
20260906221016 98 116 1.7 7.8 0.00 0.00 0.00 40 1011.6
20260906220513 98 136 2.6 7.8 0.00 0.00 0.00 40 1011.6
20260906220058 98 149 0.9 7.8 0.00 0.00 0.00 39 1011.7
20260906215521 98 163 3.5 9.6 0.00 0.00 0.00 39 1011.6
20260906215018 99 132 5.2 9.6 0.00 0.00 0.00 38 1011.7
20260906214525 99 144 3.5 9.6 0.00 0.00 0.00 39 1011.8
20260906214011 99 130 3.5 9.6 0.00 0.00 0.00 40 1011.9
20260906213509 98 132 1.7 8.7 0.00 0.00 0.00 40 1011.9
20260906213011 99 132 3.5 8.7 0.00 0.00 0.00 40 1012.1
20260906212503 98 88 4.3 8.7 0.00 0.00 0.00 40 1012.1
20260906212008 98 138 1.7 8.7 0.00 0.00 0.00 40 1012.2
20260906211505 99 120 4.3 8.7 0.00 0.00 0.00 39 1012.3
20260906211006 98 223 0.0 6.1 0.00 0.00 0.00 39 1012.3
20260906210506 98 140 2.6 10.4 0.00 0.00 0.00 39 1012.5
20260906210003 98 138 4.3 10.4 0.00 0.00 0.00 38 1012.7
20260906205504 98 155 3.5 8.7 0.00 0.00 0.00 41 1012.6
20260906205004 97 153 3.5 10.4 0.00 0.00 0.00 42 1012.7
20260906204509 96 184 4.3 10.4 0.00 0.00 0.00 41 1012.7
20260906204007 98 151 1.7 8.7 0.00 0.00 0.00 40 1012.7
20260906203508 98 30 2.6 7.8 0.00 0.00 0.00 41 1012.7
20260906203008 97 105 3.5 9.6 0.00 0.00 0.00 41 1012.8
20260906202507 98 74 4.3 9.6 0.00 0.00 0.00 39 1012.8
20260906202012 98 117 2.6 9.6 0.00 0.00 0.00 41 1012.7
20260906201509 98 39 3.5 9.6 0.00 0.00 0.00 41 1012.8
20260906201008 98 76 2.6 9.6 0.00 0.00 0.00 41 1012.9
20260906200511 98 154 4.3 11.3 0.00 0.00 0.00 43 1012.9
20260906200028 98 148 5.2 11.3 0.00 0.00 0.00 40 1013.0
20260906195504 98 168 5.2 9.6 0.00 0.00 0.00 41 1012.9
20260906195007 97 69 2.6 10.4 0.00 0.00 0.00 42 1013.0
20260906194507 97 151 3.5 10.4 0.00 0.00 0.00 43 1013.0
20260906194003 97 25 3.5 7.8 0.00 0.00 0.00 40 1013.2
20260906193504 99 171 3.5 7.8 0.00 0.00 0.00 43 1013.2
20260906193008 97 82 2.6 7.0 0.00 0.00 0.00 43 1013.2
20260906192511 97 142 3.5 11.3 0.00 0.00 0.00 43 1013.3
20260906192006 97 172 5.2 10.4 0.00 0.00 0.00 43 1013.4
20260906191510 96 166 4.3 10.4 0.00 0.00 0.00 43 1013.6
20260906191008 96 166 4.3 12.2 0.00 0.00 0.00 45 1013.5
20260906190508 96 136 4.3 12.2 0.00 0.00 0.00 44 1013.6
20260906190010 97 87 3.5 8.7 0.00 0.00 0.00 44 1013.7
20260906185507 96 134 4.3 11.3 0.00 0.00 0.00 43 1013.7
20260906185006 96 158 5.2 11.3 0.00 0.00 0.00 45 1013.7
20260906184506 96 135 4.3 9.6 0.00 0.00 0.00 44 1013.8
20260906184007 96 100 2.6 9.6 0.00 0.00 0.00 45 1013.7
20260906183511 96 150 5.2 9.6 0.00 0.00 0.00 45 1013.8
20260906183023 95 192 5.2 12.2 0.00 0.00 0.00 46 1013.9
20260906182512 95 134 6.1 12.2 0.00 0.00 0.00 43 1013.9
20260906182010 96 132 3.5 9.6 0.00 0.00 0.00 46 1014.0
20260906181513 96 115 1.7 7.8 0.00 0.00 0.00 44 1014.1
20260906181007 96 101 0.9 10.4 0.00 0.00 0.00 45 1014.2
20260906180507 94 352 2.6 10.4 0.00 0.00 0.00 47 1014.2
20260906180027 96 131 5.2 9.6 0.00 0.00 0.00 46 1014.3
20260906175512 95 80 2.6 9.6 0.00 0.00 0.00 47 1014.3
20260906175008 95 100 4.3 11.3 0.00 0.00 0.00 46 1014.5
20260906174520 94 130 5.2 9.6 0.00 0.00 0.00 48 1014.5
20260906174010 95 80 3.5 7.0 0.00 0.00 0.00 47 1014.6
20260906173510 94 141 2.6 10.4 0.00 0.00 0.00 47 1014.8
20260906173017 94 167 1.7 10.4 0.00 0.00 0.00 49 1014.8
20260906172511 95 130 5.2 9.6 0.00 0.00 0.00 46 1014.9
20260906172006 94 111 3.5 10.4 0.00 0.00 0.00 47 1015.0
20260906171508 94 116 3.5 10.4 0.00 0.00 0.00 48 1014.9
20260906171010 94 135 4.3 10.4 0.00 0.00 0.00 49 1014.8
20260906170514 94 120 5.2 10.4 0.00 0.00 0.00 48 1014.9
20260906170015 93 41 2.6 7.8 0.00 0.00 0.00 53 1014.9
20260906165508 93 138 2.6 7.8 0.00 0.00 0.00 51 1015.1
20260906165016 94 80 1.7 8.7 0.00 0.00 0.00 50 1015.2
20260906164528 93 133 3.5 8.7 0.00 0.00 0.00 50 1015.3
20260906164006 93 63 2.6 7.8 0.00 0.00 0.00 52 1015.4
20260906163510 93 127 4.3 7.8 0.00 0.00 0.00 51 1015.2
20260906163026 92 154 2.6 7.0 0.00 0.00 0.00 51 1015.2
20260906162512 92 184 1.7 9.6 0.00 0.00 0.00 52 1015.1
20260906162007 92 136 4.3 9.6 0.00 0.00 0.00 52 1015.2
20260906161518 92 137 1.7 5.2 0.00 0.00 0.00 56 1015.3
20260906161007 92 47 2.6 7.0 0.00 0.00 0.00 54 1015.3
20260906160507 91 144 0.9 7.0 0.00 0.00 0.00 54 1015.2
20260906160015 92 136 1.7 6.1 0.00 0.00 0.00 54 1015.2
20260906155510 91 163 2.6 6.1 0.00 0.00 0.00 56 1015.2
20260906155010 91 105 2.6 6.1 0.00 0.00 0.00 54 1015.2
20260906154519 90 51 0.9 5.2 0.00 0.00 0.00 57 1015.3
20260906154006 90 144 1.7 3.5 0.00 0.00 0.00 59 1015.2
20260906153502 90 113 0.0 3.5 0.00 0.00 0.00 58 1015.1
20260906153010 90 131 1.7 4.3 0.00 0.00 0.00 60 1015.0
20260906152503 90 68 1.7 4.3 0.00 0.00 0.00 61 1015.1
20260906152008 89 203 0.0 3.5 0.00 0.00 0.00 61 1014.9
20260906151508 89 44 0.0 1.7 0.00 0.00 0.00 62 1014.9
20260906151008 89 62 0.0 2.6 0.00 0.00 0.00 61 1014.8
20260906150504 88 60 0.9 2.6 0.00 0.00 0.00 64 1014.8
20260906150018 88 23 1.7 4.3 0.00 0.00 0.00 65 1014.7
20260906145505 87 117 2.6 4.3 0.00 0.00 0.00 65 1014.6
20260906145008 86 118 0.9 3.5 0.00 0.00 0.00 67 1014.6
20260906144507 86 153 0.9 3.5 0.00 0.00 0.00 66 1014.6
20260906144004 86 174 0.0 5.2 0.00 0.00 0.00 67 1014.6
20260906143508 85 84 0.9 5.2 0.00 0.00 0.00 68 1014.6
20260906143020 85 190 0.9 3.5 0.00 0.00 0.00 69 1014.6
20260906142506 85 159 0.9 2.6 0.00 0.00 0.00 69 1014.7
20260906142008 85 155 0.9 2.6 0.00 0.00 0.00 68 1014.6
20260906141505 84 113 0.0 3.5 0.00 0.00 0.00 71 1014.6
20260906141005 84 127 0.0 3.5 0.00 0.00 0.00 71 1014.6
20260906140504 83 127 0.9 3.5 0.00 0.00 0.00 71 1014.5
20260906140013 83 78 0.0 3.5 0.00 0.00 0.00 72 1014.6
20260906135507 83 139 0.9 3.5 0.00 0.00 0.00 73 1014.7
20260906135008 82 130 1.7 3.5 0.00 0.00 0.00 73 1014.8
20260906134510 81 100 0.0 2.6 0.00 0.00 0.00 75 1014.7
20260906134009 81 109 1.7 2.6 0.00 0.00 0.00 75 1014.9
20260906133510 81 93 0.9 2.6 0.00 0.00 0.00 76 1014.8
20260906133006 80 101 0.0 3.5 0.00 0.00 0.00 77 1014.7
20260906132508 80 117 1.7 3.5 0.00 0.00 0.00 77 1014.7
20260906132006 80 109 0.9 3.5 0.00 0.00 0.00 78 1014.8
20260906131523 79 147 1.7 3.5 0.00 0.00 0.00 79 1014.8
20260906131008 79 136 0.9 2.6 0.00 0.00 0.00 80 1014.7
20260906130510 79 163 0.9 2.6 0.00 0.00 0.00 81 1014.7
20260906130006 78 149 0.0 1.7 0.00 0.00 0.00 81 1014.6
20260906125504 77 113 0.0 0.0 0.00 0.00 0.00 81 1014.5
20260906125008 78 119 0.0 1.7 0.00 0.00 0.00 80 1014.6
20260906124511 77 119 0.0 1.7 0.00 0.00 0.00 82 1014.5
20260906124008 77 130 0.0 0.0 0.00 0.00 0.00 82 1014.4
20260906123507 77 130 0.0 0.0 0.00 0.00 0.00 81 1014.4
20260906123013 77 130 0.0 0.0 0.00 0.00 0.00 81 1014.3
20260906122511 77 163 0.0 0.0 0.00 0.00 0.00 81 1014.2
20260906122010 76 163 0.0 0.0 0.00 0.00 0.00 82 1014.1
20260906121517 76 163 0.0 0.0 0.00 0.00 0.00 82 1014.1
20260906121010 76 163 0.0 0.0 0.00 0.00 0.00 82 1014.0
20260906120510 76 163 0.0 0.0 0.00 0.00 0.00 82 1014.0
20260906120010 76 163 0.0 0.0 0.00 0.00 0.00 81 1014.0
20260906115510 76 163 0.0 0.0 0.00 0.00 0.00 80 1013.9
20260906115007 77 116 0.0 0.0 0.00 0.00 0.00 81 1013.9
20260906114524 77 116 0.0 0.0 0.00 0.00 0.00 79 1013.9
20260906114011 78 116 0.0 0.0 0.00 0.00 0.00 78 1013.9
20260906113510 78 116 0.0 0.0 0.00 0.00 0.00 78 1013.8
20260906113019 78 116 0.0 0.0 0.00 0.00 0.00 78 1013.8
20260906112509 78 116 0.0 0.0 0.00 0.00 0.00 78 1013.8
20260906112010 78 116 0.0 0.0 0.00 0.00 0.00 78 1013.8
20260906111518 78 116 0.0 0.0 0.00 0.00 0.00 78 1013.7
20260906111011 78 116 0.0 0.0 0.00 0.00 0.00 77 1013.7
20260906110508 79 140 0.0 1.7 0.00 0.00 0.00 77 1013.6
20260906110031 79 140 0.0 1.7 0.00 0.00 0.00 77 1013.6
20260906105511 78 109 0.0 0.0 0.00 0.00 0.00 78 1013.5
20260906105012 78 109 0.0 0.0 0.00 0.00 0.00 79 1013.4
20260906104522 78 109 0.0 0.0 0.00 0.00 0.00 78 1013.4
20260906104012 78 109 0.0 0.0 0.00 0.00 0.00 78 1013.4
20260906103509 78 109 0.0 0.0 0.00 0.00 0.00 77 1013.5
20260906103017 79 109 0.0 0.0 0.00 0.00 0.00 77 1013.5
20260906102510 79 109 0.0 0.0 0.00 0.00 0.00 77 1013.4
20260906102016 79 109 0.0 0.0 0.00 0.00 0.00 76 1013.4
20260906101521 80 109 0.0 0.0 0.00 0.00 0.00 76 1013.3
20260906101014 80 109 0.0 0.0 0.00 0.00 0.00 76 1013.3
20260906100512 79 109 0.0 0.0 0.00 0.00 0.00 76 1013.3
20260906100020 79 109 0.0 0.0 0.00 0.00 0.00 77 1013.2
20260906095511 78 109 0.0 0.0 0.00 0.00 0.00 77 1013.2
20260906095013 79 109 0.0 0.0 0.00 0.00 0.00 75 1013.2
20260906094531 80 109 0.0 0.0 0.00 0.00 0.00 75 1013.2
20260906094007 80 109 0.0 0.0 0.00 0.00 0.00 75 1013.2
20260906093507 80 109 0.0 0.0 0.00 0.00 0.00 75 1013.1
20260906093015 80 127 0.0 0.0 0.00 0.00 0.00 75 1013.0
20260906092506 80 161 0.0 0.0 0.00 0.00 0.00 76 1013.0
20260906092014 79 161 0.0 0.0 0.00 0.00 0.00 75 1013.0
20260906091517 80 161 0.0 0.0 0.00 0.00 0.00 76 1012.9
20260906091011 80 161 0.0 0.9 0.00 0.00 0.00 76 1012.9
20260906090511 80 161 0.0 1.7 0.00 0.00 0.00 76 1012.9
20260906090024 80 189 0.0 1.7 0.00 0.00 0.00 76 1012.9
20260906085513 80 161 0.0 1.7 0.00 0.00 0.00 76 1012.9
20260906085007 81 172 0.0 3.5 0.00 0.00 0.00 74 1012.9
20260906084519 81 172 0.9 3.5 0.00 0.00 0.00 74 1012.9
20260906084007 81 181 1.7 4.3 0.00 0.00 0.00 74 1012.9
20260906083507 80 188 1.7 4.3 0.00 0.00 0.00 74 1012.8
20260906083008 80 174 2.6 5.2 0.00 0.00 0.00 74 1012.7
20260906082508 81 196 2.6 5.2 0.00 0.00 0.00 74 1012.6
20260906082012 81 198 1.7 4.3 0.00 0.00 0.00 74 1012.7
20260906081531 81 186 1.7 5.2 0.00 0.00 0.00 73 1012.7
20260906081008 81 217 2.6 6.1 0.00 0.00 0.00 73 1012.7
20260906080515 81 182 2.6 6.1 0.00 0.00 0.00 72 1012.7
20260906080025 81 148 1.7 5.2 0.00 0.00 0.00 72 1012.9
20260906075509 81 168 2.6 4.3 0.00 0.00 0.00 72 1013.0
20260906075015 81 170 0.9 4.3 0.00 0.00 0.00 72 1013.1
20260906074523 81 170 2.6 4.3 0.00 0.00 0.00 72 1013.1
20260906074006 82 182 0.9 2.6 0.00 0.00 0.00 71 1013.2
20260906073509 82 172 0.0 2.6 0.00 0.00 0.00 72 1013.2
20260906073010 82 157 0.9 1.7 0.00 0.00 0.00 72 1013.2
20260906072507 82 162 0.0 2.6 0.00 0.00 0.00 73 1013.1
20260906072007 82 155 0.0 2.6 0.00 0.00 0.00 72 1013.1
20260906071516 82 150 0.9 3.5 0.00 0.00 0.00 73 1013.1
20260906071010 82 172 1.7 5.2 0.00 0.00 0.00 73 1013.0
20260906070513 82 189 0.9 5.2 0.00 0.00 0.00 72 1012.9
20260906070015 82 179 1.7 5.2 0.00 0.00 0.00 72 1013.0
20260906065511 81 172 0.9 2.6 0.00 0.00 0.00 73 1013.0
20260906065013 81 198 0.9 1.7 0.00 0.00 0.00 73 1013.1
20260906064510 82 198 1.7 2.6 0.00 0.00 0.00 71 1013.2
20260906064011 82 169 0.9 2.6 0.00 0.00 0.00 71 1013.3
20260906063514 82 184 0.0 2.6 0.00 0.00 0.00 71 1013.3
20260906063033 82 186 0.9 2.6 0.00 0.00 0.00 71 1013.2
20260906062515 82 177 0.9 3.5 0.00 0.00 0.00 71 1013.2
20260906062011 82 188 1.7 3.5 0.00 0.00 0.00 71 1013.1
20260906061516 82 200 0.9 3.5 0.00 0.00 0.00 71 1013.2
20260906061010 83 205 1.7 2.6 0.00 0.00 0.00 71 1013.2
20260906060510 82 242 0.0 1.7 0.00 0.00 0.00 71 1013.3
20260906060018 82 242 0.0 1.7 0.00 0.00 0.00 71 1013.3
20260906055511 83 194 0.9 1.7 0.00 0.00 0.00 70 1013.3
20260906055012 83 191 0.0 1.7 0.00 0.00 0.00 70 1013.4
20260906054525 83 191 0.0 2.6 0.00 0.00 0.00 69 1013.3
20260906054014 84 190 0.0 3.5 0.00 0.00 0.00 68 1013.2
20260906053507 84 164 0.9 3.5 0.00 0.00 0.00 67 1013.3
20260906053023 85 152 0.9 3.5 0.00 0.00 0.00 67 1013.3
20260906052514 85 150 0.9 3.5 0.00 0.00 0.00 66 1013.4
20260906052019 85 148 1.7 4.3 0.00 0.00 0.00 66 1013.3
20260906051516 85 172 1.7 5.2 0.00 0.00 0.00 66 1013.4
20260906051016 85 141 2.6 5.2 0.00 0.00 0.00 66 1013.4
20260906050509 85 169 1.7 4.3 0.00 0.00 0.00 65 1013.3
20260906050019 85 165 1.7 5.2 0.00 0.00 0.00 65 1013.3
20260906045510 85 128 1.7 5.2 0.00 0.00 0.00 65 1013.2
20260906045011 85 153 1.7 3.5 0.00 0.00 0.00 65 1013.1
20260906044528 85 163 1.7 4.3 0.00 0.00 0.00 64 1013.2
20260906044012 86 147 0.9 4.3 0.00 0.00 0.00 64 1013.2
20260906043514 86 177 1.7 5.2 0.00 0.00 0.00 64 1013.3
20260906043030 86 185 2.6 5.2 0.00 0.00 0.00 64 1013.3
20260906042516 86 165 2.6 5.2 0.00 0.00 0.00 63 1013.2
20260906042012 86 136 2.6 6.1 0.00 0.00 0.00 63 1013.2
20260906041527 86 158 2.6 6.1 0.00 0.00 0.00 63 1013.1
20260906041021 86 179 1.7 4.3 0.00 0.00 0.00 63 1013.0
20260906040512 86 184 1.7 6.1 0.00 0.00 0.00 62 1013.2
20260906040033 87 147 1.7 7.0 0.00 0.00 0.00 62 1013.1
20260906035520 87 136 3.5 7.8 0.00 0.00 0.00 61 1013.1
20260906035010 87 162 2.6 7.8 0.00 0.00 0.00 61 1013.1
20260906034524 87 152 3.5 7.8 0.00 0.00 0.00 61 1013.1
20260906034012 87 130 2.6 7.8 0.00 0.00 0.00 60 1013.2
20260906033513 87 138 2.6 7.0 0.00 0.00 0.00 60 1013.1
20260906033018 87 155 1.7 8.7 0.00 0.00 0.00 60 1013.1
20260906032515 87 136 3.5 8.7 0.00 0.00 0.00 59 1013.2
20260906032016 88 144 3.5 8.7 0.00 0.00 0.00 59 1013.2
20260906031543 88 119 3.5 7.0 0.00 0.00 0.00 59 1013.2
20260906031014 88 160 2.6 7.0 0.00 0.00 0.00 58 1013.1
20260906030520 88 141 1.7 7.0 0.00 0.00 0.00 58 1013.1
20260906030033 88 131 3.5 9.6 0.00 0.00 0.00 58 1013.0
20260906025518 88 128 4.3 9.6 0.00 0.00 0.00 58 1013.0
20260906025013 88 109 3.5 7.0 0.00 0.00 0.00 57 1013.0
20260906024533 88 163 2.6 7.8 0.00 0.00 0.00 57 1013.0
20260906024012 88 120 3.5 7.8 0.00 0.00 0.00 57 1012.9
20260906023514 89 146 2.6 8.7 0.00 0.00 0.00 56 1012.9
20260906023024 89 146 3.5 8.7 0.00 0.00 0.00 55 1012.7
20260906022514 89 123 3.5 8.7 0.00 0.00 0.00 55 1012.7
20260906022014 90 156 4.3 9.6 0.00 0.00 0.00 54 1012.6
20260906021526 90 75 5.2 9.6 0.00 0.00 0.00 53 1012.4
20260906021015 90 137 3.5 9.6 0.00 0.00 0.00 53 1012.3
20260906020516 91 170 3.5 9.6 0.00 0.00 0.00 52 1012.3
20260906020030 91 152 5.2 9.6 0.00 0.00 0.00 50 1012.3
20260906015520 92 153 3.5 9.6 0.00 0.00 0.00 47 1012.2
20260906015018 92 152 3.5 9.6 0.00 0.00 0.00 45 1012.0
20260906014535 92 121 1.7 2.6 0.00 0.00 0.00 45 1011.9
20260906014019 92 118 0.9 2.6 0.00 0.00 0.00 45 1011.8
20260906013517 92 84 0.9 2.6 0.00 0.00 0.00 44 1011.8
20260906013039 93 85 0.9 3.5 0.00 0.00 0.00 44 1011.8
20260906012514 93 124 0.9 3.5 0.00 0.00 0.00 44 1011.7
20260906012013 93 160 0.9 3.5 0.00 0.00 0.00 44 1011.7
20260906011526 93 121 1.7 3.5 0.00 0.00 0.00 43 1011.6
20260906011019 93 133 1.7 3.5 0.00 0.00 0.00 43 1011.6
20260906010515 93 107 0.9 3.5 0.00 0.00 0.00 43 1011.6
20260906010030 94 109 0.9 3.5 0.00 0.00 0.00 42 1011.6
20260906005517 94 126 0.9 5.2 0.00 0.00 0.00 42 1011.4
20260906005018 94 150 0.9 5.2 0.00 0.00 0.00 42 1011.4
20260906004529 95 163 2.6 5.2 0.00 0.00 0.00 41 1011.4
20260906004021 95 120 2.6 5.2 0.00 0.00 0.00 41 1011.4
20260906003519 95 138 1.7 6.1 0.00 0.00 0.00 41 1011.4
20260906003027 95 123 1.7 6.1 0.00 0.00 0.00 40 1011.4
20260906002517 96 126 2.6 6.1 0.00 0.00 0.00 40 1011.4
20260906002008 96 163 2.6 5.2 0.00 0.00 0.00 40 1011.4
20260906001518 96 90 0.9 3.5 0.00 0.00 0.00 40 1011.4
20260906001016 96 115 1.7 6.1 0.00 0.00 0.00 40 1011.4
20260906000507 97 105 1.7 6.1 0.00 0.00 0.00 40 1011.3
20260906000006 97 78 1.7 7.8 0.00 0.00 0.00 39 1011.3
20260905235503 97 107 1.7 7.8 0.00 0.00 0.00 38 1011.3
20260905235003 97 84 1.7 6.1 0.00 0.00 0.00 39 1011.2
20260905234509 97 138 2.6 6.1 0.00 0.00 0.00 38 1011.2
20260905234004 98 126 1.7 5.2 0.00 0.00 0.00 39 1011.2
20260905233510 98 62 2.6 5.2 0.00 0.00 0.00 40 1011.2
20260905233011 98 86 1.7 6.1 0.00 0.00 0.00 39 1011.2
20260905232513 98 148 0.0 6.1 0.00 0.00 0.00 39 1011.2
20260905232012 98 150 2.6 6.1 0.00 0.00 0.00 39 1011.2
20260905231506 98 186 0.9 6.1 0.00 0.00 0.00 37 1011.2
20260905231009 98 148 1.7 4.3 0.00 0.00 0.00 37 1011.2
20260905230517 98 134 1.7 6.1 0.00 0.00 0.00 37 1011.2
20260905230029 99 81 0.9 7.0 0.00 0.00 0.00 39 1011.1